Overview Statistics Trail Chart Weather Telemetry Raw packets
 

This is the latest recevied weather packets stored in our database for station/object K5IDL. If no packets are shown the sender has not sent any weather packets the latest 10 day(s).

<< 22 23 24 25 26 27 28 >>
Time Temp. Humidity Pressure Rain* Wind** Luminosity Snow
1788554591 36.67° C 46% 1013.5 hPa 0 mm - 74 W/m² -
1788554287 36.67° C 46% 1013.6 hPa 0 mm - 309 W/m² -
1788553983 36.67° C 45% 1013.6 hPa 0 mm - 153 W/m² -
1788553678 36.11° C 47% 1013.7 hPa 0 mm - 97 W/m² -
1788553374 36.67° C 47% 1013.8 hPa 0 mm - 79 W/m² -
1788553070 36.67° C 48% 1014 hPa 0 mm - 245 W/m² -
1788552769 37.22° C 45% 1013.8 hPa 0 mm - 82 W/m² -
1788552464 36.67° C 46% 1014 hPa 0 mm - 96 W/m² -
1788552159 36.67° C 48% 1014 hPa 0 mm - 80 W/m² -
1788551858 36.67° C 46% 1014.1 hPa 0 mm - 156 W/m² -
1788551557 36.67° C 45% 1014.1 hPa 0 mm - 355 W/m² -
1788551252 35.56° C 48% 1014.2 hPa 0 mm - 145 W/m² -
1788550951 36.11° C 46% 1014.3 hPa 0 mm - 83 W/m² -
1788550646 36.67° C 45% 1014.4 hPa 0 mm - 178 W/m² -
1788550342 36.67° C 45% 1014.2 hPa 0 mm - 60 W/m² -
1788550037 36.11° C 46% 1014.3 hPa 0 mm - 70 W/m² -
1788549733 35.56° C 47% 1014.3 hPa 0 mm - 50 W/m² -
1788549429 36.11° C 46% 1014.3 hPa 0 mm - 54 W/m² -
1788549125 36.11° C 46% 1014.6 hPa 0 mm - 53 W/m² -
1788548822 36.11° C 48% 1014.5 hPa 0 mm - 54 W/m² -
1788548517 35.56° C 47% 1014.6 hPa 0 mm - 58 W/m² -
1788548213 35.56° C 49% 1014.7 hPa 0 mm - 120 W/m² -
1788547908 35.56° C 49% 1015 hPa 0 mm - 71 W/m² -
1788547606 35.56° C 49% 1014.8 hPa 0 mm - 207 W/m² -
1788547302 35° C 50% 1015 hPa 0 mm - 151 W/m² -

* Rain latest hour (hover to see other rain measurements)
** Current wind speed in m/s (hover to see current wind gust speed)